Location: Clarks Summit,Pa.
(41.5000°N, 75.6000°W)
Time: 06:03:51
(UTC-05:00)

Envisat - Pass Details

Date: 08 December 2021
Orbit: 764 x 766 km, 98.2° (Epoch: 28 January)

Event Time Altitude Azimuth Distance (km) Brightness Sun altitude
Rises 06:24:00 0° 357° (N) 3,242 6.0 -9.6°
Reaches altitude 10° 06:26:58 10° 339° (NNW) 2,311 5.1 -9.1°
Maximum altitude 06:30:20 18° 297° (WNW) 1,804 4.3 -8.5°
Drops below altitude 10° 06:33:42 10° 255° (WSW) 2,300 5.0 -8.0°
Sets 06:36:39 0° 237° (WSW) 3,222 5.9 -7.5°
